Location: Unspecified
(41.1637°N, 24.2901°E)
Time: 01:46:27
(UTC+02:00)

ISS - Pass Details

Date: 12 January 2019
Orbit: 408 x 410 km, 51.6° (Epoch: 25 April)

Event Time Altitude Azimuth Distance (km) Brightness Sun altitude
Exits shadow 05:02:52 68° 226° (SW) 445 -3.9 -19.2°
Maximum altitude 05:02:55 68° 219° (SW) 444 -3.8 -19.2°
Drops below altitude 10° 05:06:12 10° 135° (SE) 1,469 -0.2 -18.6°
Sets 05:08:16 0° 133° (SE) 2,325 1.1 -18.2°
